Latest Weather Observations for Tuggeranong

IDN60901

Issued at 7:21 pm EST Wednesday 29 July 2015 (issued every 10 minutes, with the page automatically refreshed every 10 minutes)

About weather observations | Map of Canberra area stations | Latest observations for Canberra area | Other Formats
Station Details ID: 070339 Name: TUGGERANONG (ISABELLA PLAINS) AWS Lat: -35.42 Lon: 149.09 Height: 586.7 m
Data from the previous 72 hours. | See also: Recent months at Tuggeranong
Date/Time
EST
Tmp

°C
App
Tmp
°C
Dew
Point
°C
Rel
Hum
%
Delta-T

°C
Wind Press
QNH
hPa
Press
MSL
hPa
Rain
since
9 am
mm
Dir
 
Spd
km/h
Gust
km/h
Spd
kts
Gust
kts
29/07:00pm 7.8 3.9 1.2 63 2.7 N 11 15 6 8 1029.5 1030.8 0.0
29/06:30pm 7.8 4.7 1.6 65 2.6 NW 7 11 4 6 1029.3 1030.5 0.0
29/05:30pm 9.0 4.9 2.1 62 3.0 N 13 17 7 9 1029.1 1030.3 0.0
29/05:00pm 9.5 5.4 2.1 60 3.2 N 13 19 7 10 1028.7 1029.9 0.0
29/04:30pm 10.0 5.5 1.9 57 3.5 N 15 22 8 12 1028.8 1030.0 0.0
29/04:00pm 11.1 6.5 1.6 52 4.1 N 15 22 8 12 1029.1 1030.3 0.0
29/03:30pm 11.1 6.1 1.4 51 4.2 N 17 24 9 13 1029.1 1030.3 0.0
29/03:00pm 11.3 6.2 0.7 48 4.5 NNW 17 24 9 13 1029.4 1030.6 0.0
29/02:30pm 12.2 6.8 1.2 47 4.8 N 19 28 10 15 1029.5 1030.8 0.0
29/02:00pm 12.0 6.9 0.5 45 4.9 N 17 28 9 15 1029.7 1031.0 0.0
29/01:30pm 11.9 6.7 0.1 44 5.0 N 17 28 9 15 1030.3 1031.5 0.0
29/01:00pm 11.8 6.6 0.3 45 4.9 NNW 17 28 9 15 1031.0 1032.3 0.0
29/12:30pm 11.3 6.4 1.8 52 4.2 N 17 26 9 14 1031.7 1033.0 0.0
29/12:00pm 11.0 6.5 2.3 55 3.8 NNW 15 24 8 13 1032.5 1033.8 0.0
29/11:30am 9.6 6.2 2.0 59 3.3 WNW 9 15 5 8 1033.1 1034.4 0.0
29/11:00am 9.3 7.1 3.1 65 2.7 NNW 4 7 2 4 1033.6 1034.9 0.0
29/10:30am 7.7 5.3 2.0 67 2.4 NNW 4 7 2 4 1034.1 1035.4 0.0
29/10:00am 5.5 2.7 1.8 77 1.5 WNW 6 9 3 5 1034.5 1035.8 0.0
29/09:30am 4.4 2.6 1.1 79 1.3 CALM 0 0 0 0 1034.4 1035.7 0.0
29/09:00am 3.4 1.6 1.1 85 0.9 CALM 0 0 0 0 1034.7 1036.0 0.0
29/08:30am 1.4 -0.5 0.5 94 0.3 CALM 0 2 0 1 1034.7 1036.0 0.0
29/08:00am -1.5 -3.7 -1.9 97 0.1 CALM 0 0 0 0 1034.7 1036.0 0.0
29/07:30am -2.6 -5.0 -3.0 97 0.0 CALM 0 0 0 0 1034.4 1035.7 0.0
29/07:00am -3.2 -5.7 -3.9 95 0.1 CALM 0 0 0 0 1034.1 1035.4 0.0
29/06:30am -3.0 -5.5 -3.7 95 0.1 CALM 0 0 0 0 1034.0 1035.3 0.0
29/05:30am -2.6 -5.0 -3.1 96 0.1 CALM 0 0 0 0 1033.3 1034.6 0.0
29/05:00am -2.3 -4.7 -2.8 96 0.1 CALM 0 0 0 0 1033.1 1034.4 0.0
29/04:30am -2.1 -4.8 -2.6 96 0.1 ENE 2 6 1 3 1033.1 1034.4 0.0
29/04:00am -2.2 -4.6 -2.9 95 0.1 CALM 0 0 0 0 1033.3 1034.6 0.0
29/03:30am -1.7 -4.0 -2.4 95 0.2 CALM 0 0 0 0 1033.0 1034.3 0.0
29/03:00am -1.3 -3.6 -2.0 95 0.2 CALM 0 0 0 0 1033.1 1034.4 0.0
29/02:30am -1.0 -3.2 -1.7 95 0.2 CALM 0 0 0 0 1033.2 1034.5 0.0
29/02:00am -0.7 -2.9 -1.3 96 0.2 CALM 0 0 0 0 1033.3 1034.6 0.0
29/01:30am -0.4 -2.9 -0.8 97 0.1 NE 2 6 1 3 1033.3 1034.6 0.0
29/01:00am -0.7 -2.9 -1.3 96 0.2 CALM 0 0 0 0 1033.1 1034.4 0.0
29/12:30am -0.5 -2.7 -1.2 95 0.2 CALM 0 0 0 0 1033.3 1034.6 0.0
 
Date/Time
EST
Tmp

°C
App
Tmp
°C
Dew
Point
°C
Rel
Hum
%
Delta-T

°C
Wind Press
QNH
hPa
Press
MSL
hPa
Rain
since
9 am
mm
Dir
 
Spd
km/h
Gust
km/h
Spd
kts
Gust
kts
28/11:30pm 0.4 -2.0 -0.3 95 0.3 ENE 2 6 1 3 1033.2 1034.5 0.0
28/11:00pm 1.0 -0.9 0.4 96 0.2 CALM 0 0 0 0 1033.3 1034.6 0.0
28/10:30pm 0.8 -1.3 -0.5 91 0.5 CALM 0 0 0 0 1033.1 1034.4 0.0
28/10:00pm 1.6 -0.3 0.4 92 0.5 CALM 0 0 0 0 1033.1 1034.4 0.0
28/09:30pm 2.5 -0.1 1.2 91 0.5 ESE 4 7 2 4 1033.1 1034.4 0.0
28/09:00pm 2.8 -0.2 1.0 88 0.7 E 6 9 3 5 1033.1 1034.4 0.0
28/08:30pm 3.3 0.2 1.3 87 0.8 NE 7 7 4 4 1032.6 1033.9 0.0
28/08:00pm 3.5 0.9 1.1 84 1.0 SSE 4 7 2 4 1032.5 1033.8 0.0
28/07:30pm 4.7 1.9 1.9 82 1.2 ENE 6 7 3 4 1032.1 1033.3 0.0
28/07:00pm 5.4 2.5 1.5 76 1.6 E 6 7 3 4 1031.8 1033.1 0.0
28/06:30pm 7.2 4.4 2.1 70 2.2 NNE 6 7 3 4 1031.5 1032.8 0.0
28/06:00pm 8.4 5.5 2.4 66 2.6 NNE 7 9 4 5 1031.2 1032.5 0.0
28/05:30pm 9.5 6.7 2.1 60 3.2 N 6 9 3 5 1031.0 1032.3 0.0
28/05:00pm 10.8 7.7 1.6 53 4.0 NNW 7 11 4 6 1030.6 1031.8 0.0
28/04:30pm 11.5 8.0 1.5 50 4.4 NNW 9 15 5 8 1030.6 1031.8 0.0
28/04:00pm 12.1 8.3 2.0 50 4.5 N 11 17 6 9 1030.5 1031.7 0.0
28/03:30pm 12.5 9.0 1.5 47 4.9 NNW 9 15 5 8 1030.2 1031.4 0.0
28/03:00pm 12.5 9.1 2.1 49 4.6 NNW 9 13 5 7 1030.5 1031.7 0.0
28/02:30pm 12.3 8.9 1.6 48 4.7 N 9 17 5 9 1030.5 1031.7 0.0
28/02:00pm 12.3 9.1 1.0 46 4.9 W 7 13 4 7 1030.6 1031.8 0.0
28/01:30pm 11.8 8.2 0.3 45 4.9 NNW 9 17 5 9 1030.9 1032.1 0.0
28/01:00pm 11.4 8.2 0.5 47 4.6 NW 7 13 4 7 1031.2 1032.5 0.0
28/12:30pm 10.9 7.9 0.6 49 4.4 SSW 6 11 3 6 1031.7 1033.0 0.0
28/12:00pm 9.9 6.3 0.3 51 4.0 W 9 13 5 7 1032.4 1033.7 0.0
28/11:30am 9.3 6.1 1.0 56 3.5 W 7 11 4 6 1032.7 1034.0 0.0
28/11:00am 8.0 5.1 1.6 64 2.7 NW 6 9 3 5 1033.2 1034.5 0.0
28/10:30am 6.7 3.8 1.4 69 2.2 NNW 6 7 3 4 1033.4 1034.7 0.0
28/10:00am 5.0 2.8 0.9 75 1.6 S 2 6 1 3 1033.5 1034.8 0.0
28/09:30am 4.0 2.1 0.7 79 1.3 CALM 0 6 0 3 1033.4 1034.7 0.0
28/09:00am 2.1 0.1 -0.3 84 0.9 CALM 0 0 0 0 1033.4 1034.7 0.0
28/08:30am 0.3 -3.0 -1.1 90 0.5 WNW 6 7 3 4 1033.2 1034.5 0.0
28/08:00am -1.4 -3.6 -1.7 98 0.0 CALM 0 0 0 0 1032.8 1034.1 0.0
28/07:30am -3.7 -6.3 -4.5 94 0.1 CALM 0 0 0 0 1032.4 1033.7 0.0
28/07:00am -3.9 -6.5 -4.7 94 0.1 CALM 0 0 0 0 1031.8 1033.1 0.0
28/06:30am -3.6 -6.1 -4.4 94 0.1 CALM 0 0 0 0 1031.4 1032.7 0.0
28/06:00am -3.1 -6.3 -3.8 95 0.1 ENE 4 7 2 4 1031.1 1032.4 0.0
28/05:30am -3.2 -5.7 -4.0 94 0.1 CALM 0 0 0 0 1030.9 1032.1 0.0
28/05:00am -3.2 -5.7 -4.0 94 0.1 CALM 0 0 0 0 1030.6 1031.8 0.0
28/04:30am -2.6 -5.0 -3.4 94 0.2 CALM 0 0 0 0 1030.2 1031.4 0.0
28/04:00am -1.9 -4.6 -2.7 94 0.2 E 2 7 1 4 1029.9 1031.2 0.0
28/03:30am -2.0 -5.1 -2.8 94 0.2 ESE 4 7 2 4 1029.7 1031.0 0.0
28/03:00am -1.8 -4.9 -2.6 94 0.2 E 4 6 2 3 1029.5 1030.8 0.0
28/02:30am -1.7 -5.2 -2.7 93 0.3 ENE 6 6 3 3 1029.4 1030.6 0.0
28/02:00am -1.4 -3.7 -2.4 93 0.3 CALM 0 6 0 3 1029.4 1030.6 0.0
28/01:30am -1.2 -3.5 -2.5 91 0.4 CALM 0 0 0 0 1029.5 1030.8 0.0
28/01:00am -0.6 -4.2 -2.2 89 0.5 E 7 9 4 5 1029.4 1030.6 0.0
28/12:30am 0.1 -2.2 -2.1 85 0.8 CALM 0 6 0 3 1029.3 1030.5 0.0
28/12:00am 1.5 -1.6 0.0 90 0.6 NNE 6 11 3 6 1029.2 1030.4 0.0
 
Date/Time
EST
Tmp

°C
App
Tmp
°C
Dew
Point
°C
Rel
Hum
%
Delta-T

°C
Wind Press
QNH
hPa
Press
MSL
hPa
Rain
since
9 am
mm
Dir
 
Spd
km/h
Gust
km/h
Spd
kts
Gust
kts
27/11:30pm 1.1 -2.4 -1.0 86 0.8 ENE 7 9 4 5 1029.2 1030.4 0.0
27/11:00pm 0.6 -3.3 -1.5 86 0.8 ENE 9 13 5 7 1029.3 1030.5 0.0
27/10:30pm 0.6 -2.7 -1.3 87 0.7 E 6 7 3 4 1029.3 1030.5 0.0
27/10:00pm 0.8 -2.2 -2.1 81 1.1 ENE 4 7 2 4 1029.1 1030.3 0.0
27/09:30pm 2.1 -1.2 -1.2 79 1.2 W 6 13 3 7 1028.9 1030.1 0.0
27/09:00pm 2.9 -0.5 -0.9 76 1.4 WNW 7 9 4 5 1028.7 1029.9 0.0
27/08:30pm 3.6 -0.2 -0.8 73 1.7 NW 9 13 5 7 1028.7 1029.9 0.0
27/08:00pm 3.5 -0.6 -0.5 75 1.5 NW 11 17 6 9 1028.6 1029.8 0.0
27/07:30pm 4.2 -0.3 -0.6 71 1.9 WNW 13 17 7 9 1028.4 1029.6 0.0
27/07:00pm 4.2 0.1 0.0 74 1.6 NW 11 19 6 10 1027.9 1029.1 0.0
27/06:30pm 4.6 0.5 -0.4 70 1.9 NW 11 17 6 9 1027.6 1028.8 0.0
27/06:00pm 5.1 1.1 -2.5 58 2.8 WNW 9 13 5 7 1027.2 1028.4 0.0
27/05:30pm 6.2 0.7 -2.2 55 3.2 W 17 26 9 14 1026.6 1027.7 0.0
27/05:00pm 6.7 0.6 -2.4 52 3.4 W 20 30 11 16 1026.2 1027.4 0.0
27/04:30pm 8.0 1.1 -2.3 48 4.0 WSW 24 33 13 18 1025.8 1027.0 0.0
27/04:00pm 8.6 1.7 -2.3 46 4.2 WSW 24 37 13 20 1025.5 1026.7 0.0
27/03:30pm 8.9 2.0 -2.7 44 4.5 WSW 24 41 13 22 1025.2 1026.3 0.0
27/03:00pm 9.7 3.2 -2.6 42 4.8 WSW 22 43 12 23 1025.0 1026.1 0.0
27/02:30pm 9.9 3.4 -2.4 42 4.8 WSW 22 37 12 20 1024.5 1025.7 0.0
27/02:00pm 9.6 2.7 -2.7 42 4.8 WSW 24 37 13 20 1024.3 1025.5 0.0
27/01:30pm 9.9 3.4 -2.4 42 4.8 WSW 22 33 12 18 1024.3 1025.5 0.0
27/01:00pm 9.7 2.4 -2.6 42 4.8 WSW 26 33 14 18 1024.2 1025.4 0.0
27/12:30pm 9.9 3.8 -2.7 41 4.9 WSW 20 32 11 17 1024.3 1025.5 0.0
27/12:00pm 9.9 4.3 -3.0 40 5.0 WSW 17 26 9 14 1024.2 1025.4 0.0
27/11:30am 9.4 3.8 -2.8 42 4.7 WSW 17 24 9 13 1024.4 1025.6 0.0
27/11:00am 8.8 3.6 -3.1 43 4.5 WSW 15 24 8 13 1024.8 1025.9 0.0
27/10:30am 8.3 3.1 -2.6 46 4.2 W 15 24 8 13 1024.6 1025.8 0.0
27/10:00am 7.6 1.6 -3.0 47 4.0 W 19 28 10 15 1024.5 1025.7 0.0
27/09:30am 6.4 1.7 -5.2 43 4.1 WNW 11 15 6 8 1024.2 1025.4 0.0
27/09:00am 5.7 1.1 -3.9 50 3.5 NW 11 20 6 11 1023.7 1024.8 0.0
27/08:30am 4.7 -0.2 -3.8 54 3.0 NW 13 19 7 10 1023.6 1024.7 0.0
27/08:00am 3.7 -1.2 -3.3 60 2.5 NNW 13 19 7 10 1023.2 1024.3 0.0
27/07:30am 2.6 -1.2 -3.7 63 2.2 NNE 7 13 4 7 1022.7 1023.9 0.0
27/07:00am 2.4 -2.6 -3.9 63 2.2 NNW 13 20 7 11 1022.5 1023.7 0.0
27/06:30am 2.7 -2.2 -3.8 62 2.3 NW 13 20 7 11 1021.8 1022.9 0.0
27/06:00am 3.0 -2.7 -3.8 61 2.4 WNW 17 26 9 14 1021.4 1022.5 0.0
27/05:30am 3.5 -2.7 -4.4 56 2.7 WNW 19 24 10 13 1021.3 1022.4 0.0
27/05:00am 3.7 -1.8 -5.2 52 3.0 WNW 15 22 8 12 1021.2 1022.3 0.0
27/04:30am 4.2 -2.6 -5.5 49 3.3 W 22 43 12 23 1020.8 1021.9 0.0
27/04:27am 4.4 -2.8 -5.6 48 3.4 W 24 43 13 23 1020.7 1021.8 0.0
27/04:00am 2.5 -1.4 -5.1 57 2.7 WSW 7 9 4 5 1020.5 1021.6 0.0
27/03:30am 3.5 -0.8 -5.2 53 3.0 WSW 9 15 5 8 1020.4 1021.5 0.0
27/03:00am 3.8 -1.6 -4.9 53 3.0 W 15 19 8 10 1020.4 1021.5 0.0
27/02:30am 3.8 -0.9 -4.6 54 2.9 WNW 11 17 6 9 1020.4 1021.5 0.0
27/02:00am 4.3 -1.1 -4.4 53 3.0 W 15 20 8 11 1020.3 1021.4 0.0
27/01:30am 3.9 0.1 -3.8 57 2.7 WSW 7 15 4 8 1020.5 1021.6 0.0
27/01:00am 3.9 0.4 -2.7 62 2.4 NE 6 13 3 7 1020.2 1021.3 0.0
27/12:30am 4.8 1.6 -3.5 55 3.0 NNW 4 11 2 6 1020.5 1021.6 0.0
27/12:00am 5.1 0.3 -2.9 56 2.9 WNW 13 22 7 12 1020.2 1021.3 0.0
 
Date/Time
EST
Tmp

°C
App
Tmp
°C
Dew
Point
°C
Rel
Hum
%
Delta-T

°C
Wind Press
QNH
hPa
Press
MSL
hPa
Rain
since
9 am
mm
Dir
 
Spd
km/h
Gust
km/h
Spd
kts
Gust
kts
26/11:30pm 4.7 0.5 -3.6 55 3.0 NNW 9 17 5 9 1020.1 1021.2 0.0
26/11:00pm 5.0 0.5 -3.5 54 3.1 NNW 11 17 6 9 1020.1 1021.2 0.0
26/10:30pm 4.9 -0.4 -3.6 54 3.1 WNW 15 30 8 16 1019.7 1020.8 0.0
26/10:00pm 5.0 -2.0 -3.3 55 3.0 W 24 37 13 20 1019.1 1020.2 0.0
26/09:30pm 5.2 -1.0 -3.3 54 3.1 WNW 20 28 11 15 1019.7 1020.8 0.0
26/09:00pm 5.5 -0.6 -3.6 52 3.3 W 19 32 10 17 1019.7 1020.8 0.0
26/08:30pm 5.4 -0.3 -3.6 52 3.3 W 17 32 9 17 1019.5 1020.6 0.0
26/08:00pm 5.7 -0.6 -3.6 51 3.4 W 20 37 11 20 1018.9 1020.0 0.0
26/07:30pm 5.4 -1.5 -2.4 57 2.9 WNW 24 44 13 24 1018.2 1019.3 0.0

Latest Capital City Observations: Canberra | Sydney | Melbourne | Brisbane | Adelaide | Perth | Hobart | Darwin

Other Formats:

Comma delimited format used in spreadsheet applications
http://www.bom.gov.au/fwo/IDN60903/IDN60903.94925.axf

JavaScript Object Notation format (JSON) in row-major order
http://www.bom.gov.au/fwo/IDN60903/IDN60903.94925.json